Regional Weather Roundup
Issued by NWS Newport/Morehead, NC

Current Version | Previous Version | Text Only | Print | Product List | Glossary Off
Versions: 1 2 3 4 5 6 7 8 9 10 11 12 13 14 15 16 17 18 19 20 21 22 23 24 25 26 27 28 29 30 31 32 33 34 35 36 37 38 39 40 41 42 43 44 45 46 47 48 49 50
000 ASUS42 KMHX 312022 RWRMHX WEATHER ROUNDUP FOR EASTERN NORTH CAROLINA NATIONAL WEATHER SERVICE NEWPORT/MOREHEAD CITY NC 300 PM EST SAT JAN 31 2015 NOTE: "FAIR" INDICATES FEW OR NO CLOUDS BELOW 12,000 FEET WITH NO SIGNIFICANT WEATHER AND/OR OBSTRUCTIONS TO VISIBILITY NCZ015>017-031-032-045>047-102-103-312100- NORTH COAST CITY SKY/WX TMP DP RH WIND PRES REMARKS EDENTON SUNNY 42 8 25 W9 30.29F ELIZABETH CITY SUNNY 40 8 26 W13G23 30.29S KITTY HAWK CLEAR 38 7 28 W8 30.27S MANTEO SUNNY 37 9 30 NW13G21 30.29S $$ NCZ045>047-081-094-103-104-312100- CENTRAL COAST CITY SKY/WX TMP DP RH WIND PRES REMARKS FRISCO SUNNY 39 11 31 NW10G18 30.30S SWANQUARTER NOT AVBL $$ NCZ095-097-098-100-101-312100- SOUTHERN COAST CITY SKY/WX TMP DP RH WIND PRES REMARKS BEAUFORT SUNNY 44 7 21 VRB3 30.31F CEDAR ISLAND NOT AVBL JACKSONVILLE SUNNY 46 9 22 N7 30.31F PINEY ISLAND N/A N/A N/A N/A MISG 30.31F WILMINGTON SUNNY 49 8 19 W10 30.32F $$ NCZ011>013-027>030-043-044-078>080-089-090>093-098-312100- COASTAL PLAIN CITY SKY/WX TMP DP RH WIND PRES REMARKS AHOSKIE SUNNY 42 7 23 N3 30.30F CLINTON SUNNY 47 10 22 NW7 30.33S ELIZABETHTOWN SUNNY 49 5 17 NW5 30.32S GOLDSBORO SUNNY 27 16 63 CALM 30.30S GREENVILLE SUNNY 45 9 23 W7 30.31F HAVELOCK SUNNY 46 5 18 N9 30.32F KENANSVILLE SUNNY 46 8 21 W8 30.33S KINSTON SUNNY 45 7 21 W6G18 30.32F NEW BERN SUNNY 47 7 19 N8 30.32F RICHLANDS SUNNY 45 9 23 NW6 30.32F ROCKY MOUNT SUNNY 46 7 20 VRB3 30.30F WASHINGTON SUNNY 43 8 23 W6 30.31S WHITEVILLE SUNNY 49 4 16 CALM 30.32F $$ AMZ130-135-150-152-154-156-158-170-250-252-270-ANZ085-086-088-633-658-670-312100- MARINE OBSERVATIONS STATION/POSITION TIME TEMP WIND PRES WAVE SWELL AIR SEA DIR/SP/G HT/PER HT/PER (UTC) (F) (DEG/KT/KT) (MB) (FT/S) (FT/S) CHESAPEAKE LIGHT 2000 34 310/ 19/ 20 1025.8 64 E VA BEACH 2000 33 48 320/ 23/ 29 1023.0 9/ 8 DUCK 2000 36 40 340/ 13/ 16 1024.2 2 E DUCK 2000 41 N/A 5/ 8 2/11 10 NE DUCK 2000 43 N/A 6/ 8 2/11 OREGON INLET 2000 36 39 290/ 12/ 17 1025.5 13E OREGON INLT 2000 45 N/A 8/ 9 2/11 HATTERAS CG 2000 36 40 320/ 13/ 16 1026.2 DIAMOND BUOY 2000 37 63 330/ 14/ 19 1025.7 6/10 3/10 17 S OCRACOKE NOT AVBL CAPE LOOKOUT 2000 41 320/ 4/ 6 1026.5 BEAUFORT LAB 2000 43 45 340/ 6/ 9 1025.4 27 SE WRIGHTSVLE NOT AVBL 5 SE WRIGHTSVLE 2000 43 52 170/ 6/ 8 1026.9 225 S CAPE HAT 1902 54 69 340/ 17/ 23 1025.0 10/ 9 8/ 9 41 SE CHARLESTON 2000 47 67 30/ 12/ 17 1027.7 5/ 6 3/ 6 $$

USA.gov is the U.S. government's official web portal to all federal, state and local government web resources and services.